FENGYUN 1C DEB

Satellite information

Favourite Embed

Satellite Type and Status

DEBRISIN ORBIT

Key statistics

Satellite FENGYUN 1C DEB at a glance.

Uptime

9608

Days in orbit

Revolutions

≈ 13.9

Per day

Orbit

SSO

Sun Synchronous Orbit

Inclination

99.4

Latest

Satellite identification and parameters

Extended collection of information and parameters for FENGYUN 1C DEB.

Object identification

Identified? True

Debris? True

Object name: FENGYUN 1C DEB

International designator: 1999-025CAQ

Object number (NORAD): 31634

Object ID (CCSDS): 31634

Country: PEOPLES REPUBLIC OF CHINA (PRC)

Current information (Y/N): Y

RCS size: SMALL

Orbital parameters

Period: 103.26 minutes

Inclination: 99.382 deg

SMA: 7290.886 km

Apoapsis: 980.163 km

Periapsis: 845.339 km

RAAN: 284.2318 deg

Eccentricy: 0.00924606

Argument of periapsis: 88.9072 deg

Mean anomaly: 272.268 deg

Mean motion: 13.9454426 rev/day

Mean motion (dot): 0.00000156 rev/day2

B* drag term: 0.00014591659 1/REarth

Two-line elements (TLE)

Creation date: Aug. 27, 2025, 8:01 p.m.

Reference frame: TEME

Reference center: EARTH

Epoch: Aug. 27, 2025, 9:03 a.m. UTC

TLE line 0: 0 FENGYUN 1C DEB

TLE line 1: 1 31634U 99025CAQ 25239.37772513 .00000156 00000-0 14592-3 0 9994

TLE line 2: 2 31634 99.3820 284.2318 0092461 88.9072 272.2680 13.94544260550278

Live tracking on map

Real-time ground track for satellite FENGYUN 1C DEB.

In-orbit conjunctions

A list of the most updated potential collisions computed for object FENGYUN 1C DEB.

Target Orbit TCA Probability of collision Miss distance Type
THORAD AGENA D DEB SSO 2024-09-24 18:51:07 0.002473578 147.0 (m) DEBRIS
YAOGAN 4 DEB SSO 2024-07-19 14:53:46 0.0001624683 175.0 (m) DEBRIS
COSMOS 1275 LEO 2024-06-08 14:42:14 0.0001101891 841.0 (m) PAYLOAD

Associated space launch

Chinese polar orbiting meteorological satellite

FENGYUN 1C DEB was lifted into orbit during the mission ‘Long March 4B | Feng Yun 1C’, on board a Long March 4B space rocket.

The launch took place on May 10, 1999, 1:33 a.m. from Launch Complex 7.

For more information about the launch, click the button.

Launch to space Long March 4B | Feng Yun 1C
Long March 4B | Feng Yun 1C

Agency: N/A

Status: Launch Successful

Launch date: May 10, 1999, 1:33 a.m. UTC

Rocket: Long March 4B

Launch pad: Launch Complex 7

Location: Taiyuan Satellite Launch Center, People's Republic of China

...

Latest news about this satellite

There are no fresh news available about this satellite. Check back as we update our databases every day.


Newsletter sign-up

Weekly statistics, charts and insights to help you stay on top of the space industry.